Regional Weather Roundup
Issued by NWS

Home | Current Version | Previous Version | Text Only | Print | Product List | Glossary Off
Versions: 1 2 3 4 5 6 7 8 9 10 11 12 13 14 15 16 17 18 19 20 21 22 23 24 25 26 27 28 29 30 31 32 33 34 35 36 37 38 39 40 41 42 43 44 45 46 47 48 49 50

000
ASUS44 KMEG 300210
RWRTN
TENNESSEE HOURLY STATE WEATHER ROUNDUP
NATIONAL WEATHER SERVICE MEMPHIS TN
900 PM CDT WED JUL 29 2015

TNZ002-004-019-021-049-052-054-088>092-300300-
WEST TENNESSEE

CITY           SKY/WX    TMP DP  RH WIND       PRES   REMARKS
MEMPHIS INTL   PTCLDY    91  77  63 N5        30.00R HX 104
NWS MEMPHIS      N/A     86 N/A N/A MISG        N/A
JACKSON        MOCLDY    82  75  79 CALM      30.00R
DYERSBURG        N/A    N/A N/A N/A MISG        N/A
PARIS          PTCLDY    73  72  94 N5        30.03R
$$

TNZ008-025-027-028-033-062-065-066-300300-
NORTH MIDDLE TENNESSEE

CITY           SKY/WX    TMP DP  RH WIND       PRES   REMARKS
NASHVILLE      PTCLDY    86  77  74 CALM      30.00R HX  97
CLARKSVILLE    LGT RAIN  75  72  90 SW6       30.03R
SMYRNA         CLEAR     86  78  76 W6        30.01R HX  98
CROSSVILLE     MOCLDY    81  73  76 CALM      30.09R
$$

TNZ061-075-076-078-094-096-097-300300-
SOUTH MIDDLE TENNESSEE

CITY           SKY/WX    TMP DP  RH WIND       PRES   REMARKS
FAYETTEVILLE   CLEAR     81  75  83 N3        30.02S
TULLAHOMA      PTCLDY    82  75  78 CALM      30.04S
WINCHESTER     CLEAR     81  75  83 CALM      30.03R
MCMINNVILLE    CLEAR     81  81 100 CALM      30.04R HX  91
COLUMBIA       CLEAR     82  82 100 CALM      30.01R HX  97
SHELBYVILLE    CLEAR     86  79  79 NW5       30.02S HX  99
$$

TNZ017-018-042-046-047-300300-
NORTHEAST TENNESSEE

CITY           SKY/WX    TMP DP  RH WIND       PRES   REMARKS
TRI CITIES     MOCLDY    80  72  76 CALM      30.02R
ELIZABETHTON   MOCLDY    75  72  88 CALM      30.04R
$$

TNZ012-013-036-069-073-074-300300-
CENTRAL EAST TENNESSEE

CITY           SKY/WX    TMP DP  RH WIND       PRES   REMARKS
KNOXVILLE      MOCLDY    83  75  77 CALM      30.00R HX  90
OAK RIDGE      CLEAR     83  75  77 CALM      30.02R HX  90
GATLINBURG     CLEAR     79  72  78 CALM      30.01R
MORRISTOWN     CLEAR     81  73  78 CALM      30.04R
$$

TNZ083-085-099-300300-
SOUTHEAST TENNESSEE

CITY           SKY/WX    TMP DP  RH WIND       PRES   REMARKS
CHATTANOOGA    PTCLDY    84  72  67 NE6       29.99R
$$

SKY/WX REPORTED AS FAIR MEANS FEW OR NO CLOUDS BELOW
12 THOUSAND FEET.



USA.gov is the U.S. government's official web portal to all federal, state and local government web resources and services.